Roseburg, OR

5:29 AM PDT on September 23, 2017 (GMT -0700)
Roseburg Regional

Weather History for KRBG - March, 2014

Change the Weather History Date:

Friday, March 21, 2014

  Actual Average Record
Temperature  
Mean Temperature 48 °F 49 °F  
Max Temperature 58 °F 58 °F 79 °F (1940)
Min Temperature 38 °F 40 °F 30 °F (2007)
Degree Days  
Heating Degree Days 17 16  
Month to date heating degree days 255 355  
Since 1 July heating degree days 3182 3224  
Cooling Degree Days 0 0  
Month to date cooling degree days 0 0  
Year to date cooling degree days 0 0  
Moisture  
Dew Point 30 °F    
Average Humidity 55    
Maximum Humidity 79    
Minimum Humidity 30    
Precipitation  
Precipitation 0.00 in 0.13 in 2.29 in (2012)
Month to date precipitation 2.77 2.24  
Year to date precipitation 10.22 11.28  
Sea Level Pressure  
Sea Level Pressure 30.22 in    
Wind  
Wind Speed 6 mph (North)    
Max Wind Speed 14 mph    
Max Gust Speed 20 mph    
Visibility 10 miles    
Events      
T = Trace of Precipitation, MM = Missing Value Source: NWS Daily Summary

Daily Weather History Graph

Daily Weather History Graph

Search for Another Location

Airport or City:

Trip Planner

Search our weather history database for the weather conditions in past years. The results will help you decide how hot, cold, wet, or windy it might be!

Date:

Astronomy

Mar. 21, 2014 Rise Set
Actual Time 7:14 AM PDT 7:27 PM PDT
Civil Twilight 6:46 AM PDT 7:55 PM PDT
Nautical Twilight 6:12 AM PDT 8:28 PM PDT
Astronomical Twilight 5:38 AM PDT 9:03 PM PDT
Moon No Moon Rise 10:03 AM PDT (3/21)
Length of Visible Light 13h 09m
Length of Day
12h 12m
Waning Gibbous, 74% of the Moon is Illuminated
Mar 21
Waning Gibbous
Mar 23
Last Quarter
Mar 30
New
Apr 7
First Quarter
Apr 15
Full

Hourly Weather History & Observations

Time (PDT) Temp. Windchill Dew Point Humidity Pressure Visibility Wind Dir Wind Speed Gust Speed Precip Events Conditions
12:53 AM 43.0 °F 41.3 °F 32.0 °F 65% 30.26 in 10.0 mi Variable 3.5 mph - N/A   Clear
1:53 AM 41.0 °F 39.0 °F 32.0 °F 70% 30.25 in 10.0 mi NNW 3.5 mph - N/A   Clear
2:53 AM 39.9 °F 35.8 °F 32.0 °F 73% 30.24 in 10.0 mi NNE 5.8 mph - N/A   Clear
3:53 AM 39.9 °F 34.5 °F 33.1 °F 77% 30.23 in 10.0 mi North 8.1 mph - N/A   Clear
4:22 AM 39.0 °F 36.8 °F 33.1 °F 79% 30.22 in 10.0 mi North 3.5 mph - N/A   Mostly Cloudy
4:53 AM 39.0 °F 35.7 °F 33.1 °F 79% 30.23 in 10.0 mi NNW 4.6 mph - N/A   Overcast
5:53 AM 39.9 °F 35.1 °F 32.0 °F 73% 30.23 in 10.0 mi North 6.9 mph - N/A   Overcast
6:40 AM 39.9 °F 33.9 °F 30.9 °F 70% 30.23 in 10.0 mi NNE 9.2 mph - N/A   Overcast
6:53 AM 39.9 °F 34.5 °F 32.0 °F 73% 30.24 in 10.0 mi NNE 8.1 mph - N/A   Overcast
7:53 AM 39.0 °F 35.7 °F 30.9 °F 73% 30.25 in 10.0 mi NNE 4.6 mph - N/A   Overcast
8:53 AM 39.0 °F 34.8 °F 30.0 °F 70% 30.26 in 10.0 mi NNE 5.8 mph - N/A   Overcast
9:53 AM 39.9 °F 35.1 °F 30.0 °F 68% 30.27 in 10.0 mi North 6.9 mph - N/A   Overcast
10:53 AM 41.0 °F 39.0 °F 30.0 °F 65% 30.27 in 10.0 mi Variable 3.5 mph - N/A   Overcast
11:40 AM 43.0 °F - 30.9 °F 62% 30.25 in 10.0 mi Calm Calm - N/A   Scattered Clouds
11:53 AM 43.0 °F 41.3 °F 32.0 °F 65% 30.25 in 10.0 mi SSE 3.5 mph - N/A   Partly Cloudy
12:53 PM 46.0 °F 43.1 °F 32.0 °F 58% 30.24 in 10.0 mi SSW 5.8 mph - N/A   Clear
1:53 PM 52.0 °F - 30.0 °F 43% 30.21 in 10.0 mi NNE 11.5 mph - N/A   Clear
2:53 PM 54.0 °F - 28.0 °F 37% 30.19 in 10.0 mi North 8.1 mph - N/A   Clear
3:53 PM 55.9 °F - 28.0 °F 34% 30.17 in 10.0 mi North 6.9 mph - N/A   Clear
4:53 PM 57.0 °F - 26.1 °F 30% 30.17 in 10.0 mi North 13.8 mph 18.4 mph N/A   Clear
5:53 PM 57.0 °F - 26.1 °F 30% 30.16 in 10.0 mi North 12.7 mph - N/A   Clear
6:53 PM 54.0 °F - 24.1 °F 31% 30.17 in 10.0 mi North 12.7 mph - N/A   Clear
7:53 PM 51.1 °F - 24.1 °F 35% 30.19 in 10.0 mi North 3.5 mph - N/A   Clear
8:53 PM 46.9 °F - 26.1 °F 44% 30.20 in 10.0 mi Calm Calm - N/A   Clear
9:53 PM 44.1 °F - 28.0 °F 53% 30.21 in 10.0 mi Calm Calm - N/A   Clear
10:53 PM 43.0 °F - 28.0 °F 56% 30.22 in 10.0 mi Calm Calm - N/A   Clear
11:53 PM 39.9 °F - 28.9 °F 65% 30.22 in 10.0 mi Calm Calm - N/A   Clear